Tracking 30743 objects as of 24-Jun-2025
HD Live streaming from Space Station
objects crossing your sky now

COSMOS 2491 DEB

Track COSMOS 2491 DEB now!
10-day predictions


NORAD ID: 45127
Int'l Code: 2013-076Z
Perigee: 1,346.3 km
Apogee: 1,505.4 km
Inclination: 82.5 °
Period: 114.2 minutes
Semi major axis: 7796 km
RCS: Unknown
Launch date: December 25, 2013
Source: Commonwealth of Independent States (former USSR) (CIS)
Launch site: PLESETSK MISSILE AND SPACE COMPLEX (PKMTR)

Note: This is SATELLITE DEBRIS
Your satellite tracking list
Your tracking list is empty




NASA's NSSDC Master Catalog

Two Line Element Set (TLE):
1 45127U 13076Z   25171.23757799  .00002052  00000-0  11387-1 0  9991
2 45127  82.4537 357.8724 0101969 297.0024  62.0684 12.61026803247600
Source of the keplerian elements: AFSPC